Home   Weather   Nouadhibou   Past weeks

Flag for Mauritania Past Weather in Nouadhibou, Mauritania — Yesterday and Last 2 Weeks

75 °F

Passing clouds.

Feels Like: 77 °F
Forecast: 64 / 73 °F
Wind: 14 mph from Northwest

Location: Nouadhibou Airport

Current Time: Oct 23, 2016 at 2:32:31 PM

Latest Report: Oct 23, 2016 at 1:00 PM

Visibility: 4 mi

Pressure: 29.95 "Hg

Humidity: 74%

Dew Point: 66 °F

Location of NouadhibouLocation

Past Weather in Nouadhibou — Graph


Nouadhibou Temperature Yesterday

Maximum temperature yesterday: 75 °F (at 2:00 PM)
Minimum temperature yesterday: 64 °F (at 1:00 AM)
Average temperature yesterday: 68 °F

High & Low Weather Summary for the Past Weeks

High93 °F (Oct 16, 2:00 PM)100% (Oct 14, 4:57 AM)30.04 "Hg (Oct 14, 4:57 AM)
Low63 °F (Oct 12, 6:00 AM)30% (Oct 16, 2:00 PM)29.83 "Hg (Oct 10, 3:00 PM)
Average73 °F73%29.93 "Hg
* Reported Oct 8 1:00 PM — Oct 23 1:00 PM, Nouadhibou, Weather by CustomWeather, © 2016

Note: Actual official high and low records may vary slightly from our data, if they occured in-between our weather recording intervals... More about our weather records


Nouadhibou Weather History for the Previous 24 Hours

Scroll right to see more
Time TempWeatherWind HumidityBarometerVisibility
1:00 PM
Sun, Oct 23
75 °FPassing clouds.14 mph74%29.95 "Hg4 mi
12:00 PM73 °FPassing clouds.14 mph78%29.98 "Hg4 mi
11:00 AM70 °FPassing clouds.9 mph83%30.01 "Hg4 mi
10:00 AM70 °FScattered clouds.9 mph94%30.01 "Hg4 mi
9:00 AM68 °FFog.7 mph94%29.98 "Hg1 mi
8:50 AM68 °FMild.7 mph94%29.98 "HgN/A
8:00 AM66 °FFog.9 mph100%29.98 "Hg1 mi
7:00 AM64 °FFog.9 mph100%29.98 "Hg1 mi
6:00 AM64 °FFog.7 mph100%29.98 "Hg1 mi
5:00 AM66 °FFog.7 mph94%29.98 "Hg1 mi
4:00 AM66 °FFog.7 mph100%29.95 "Hg1 mi
3:00 AM66 °FFog.7 mph100%29.98 "Hg1 mi
2:55 AM66 °FFog.7 mph100%29.98 "Hg1 mi
2:00 AM68 °FPassing clouds.7 mph94%29.98 "Hg4 mi
1:00 AM68 °FPassing clouds.7 mph94%29.98 "Hg4 mi
12:00 AM68 °FPassing clouds.7 mph94%29.98 "Hg4 mi
11:00 PM
Sat, Oct 22
68 °FPassing clouds.9 mph94%30.01 "Hg4 mi
10:00 PM68 °FPassing clouds.9 mph94%29.98 "Hg4 mi
9:00 PM68 °FPassing clouds.9 mph94%29.98 "Hg4 mi
8:00 PM70 °FClear.9 mph88%29.95 "Hg4 mi
7:00 PM70 °FClear.14 mph88%29.95 "Hg4 mi
6:00 PM70 °FPassing clouds.18 mph88%29.95 "Hg4 mi
5:00 PM72 °FPassing clouds.18 mph78%29.92 "Hg4 mi
4:00 PM73 °FPassing clouds.17 mph78%29.92 "Hg4 mi
3:00 PM73 °FPassing clouds.18 mph78%29.92 "Hg4 mi
2:00 PM75 °FPassing clouds.14 mph69%29.95 "Hg4 mi
Weather by CustomWeather, © 2016

See weather overviewHow to use our weather pages